Location: Austin
(30.3000°N, 97.7500°W)
Time: 06:11:42
(UTC-05:00)

Resurs 1-4 Rocket - Pass Details

Date: 16 June 2025
Orbit: 798 x 812 km, 98.8° (Epoch: 08 July)

Event Time Altitude Azimuth Distance (km) Brightness Sun altitude
Rises 04:46:24 0° 354° (N) 3,311 5.8 -18.9°
Reaches altitude 10° 04:49:16 10° 338° (NNW) 2,379 4.8 -18.4°
Maximum altitude 04:53:04 21° 292° (WNW) 1,754 3.6 -17.8°
Enters shadow 04:54:19 19° 273° (W) 1,833 3.6 -17.6°
